| time (UTC) | temp F | wind direction | speed MPH | gust MPH | rain 1hr in | rain 24hr in | rain mn in | humidity % | barometer mb |
| 20260509224104 | 56 | 290 | 3.0 | 5.0 | 0.00 | 0.00 | 0.00 | 80 | 1029.9 |
| 20260509223603 | 56 | 305 | 3.0 | 5.0 | 0.00 | 0.00 | 0.00 | 80 | 1029.9 |
| 20260509223103 | 56 | 287 | 2.0 | 5.0 | 0.00 | 0.00 | 0.00 | 82 | 1029.8 |
| 20260509222603 | 55 | 312 | 2.0 | 3.0 | 0.00 | 0.00 | 0.00 | 83 | 1029.8 |
| 20260509222104 | 54 | 296 | 3.0 | 6.0 | 0.00 | 0.00 | 0.00 | 84 | 1029.9 |
| 20260509221104 | 54 | 318 | 3.0 | 6.0 | 0.00 | 0.00 | 0.00 | 86 | 1029.7 |
| 20260509220604 | 53 | 300 | 2.0 | 3.0 | 0.00 | 0.00 | 0.00 | 86 | 1029.6 |
| 20260509220104 | 53 | 300 | 2.0 | 3.0 | 0.00 | 0.00 | 0.00 | 87 | 1029.7 |
| 20260509215604 | 52 | 297 | 3.0 | 3.0 | 0.00 | 0.00 | 0.00 | 88 | 1029.7 |
| 20260509215104 | 52 | 298 | 3.0 | 5.0 | 0.00 | 0.00 | 0.00 | 88 | 1029.5 |
| 20260509214604 | 51 | 286 | 4.0 | 6.0 | 0.00 | 0.00 | 0.00 | 89 | 1029.4 |
| 20260509214103 | 51 | 287 | 3.0 | 7.0 | 0.00 | 0.00 | 0.00 | 89 | 1029.4 |
| 20260509213604 | 51 | 294 | 3.0 | 5.0 | 0.00 | 0.00 | 0.00 | 89 | 1029.5 |
| 20260509213104 | 50 | 297 | 2.0 | 3.0 | 0.00 | 0.00 | 0.00 | 90 | 1029.4 |
| 20260509212104 | 50 | 304 | 2.0 | 3.0 | 0.00 | 0.00 | 0.00 | 91 | 1029.3 |
| 20260509211103 | 50 | 304 | 1.0 | 2.0 | 0.00 | 0.00 | 0.00 | 91 | 1029.2 |
| 20260509210604 | 49 | 296 | 1.0 | 3.0 | 0.00 | 0.00 | 0.00 | 91 | 1029.1 |
| 20260509205604 | 49 | 299 | 2.0 | 3.0 | 0.00 | 0.00 | 0.00 | 91 | 1029.1 |
| 20260509205104 | 49 | 299 | 2.0 | 3.0 | 0.00 | 0.00 | 0.00 | 91 | 1029.0 |
| 20260509204604 | 49 | 266 | 1.0 | 3.0 | 0.00 | 0.00 | 0.00 | 90 | 1028.9 |
| 20260509204104 | 49 | 325 | 2.0 | 3.0 | 0.00 | 0.00 | 0.00 | 90 | 1028.9 |
| 20260509203104 | 49 | 336 | 2.0 | 3.0 | 0.00 | 0.00 | 0.00 | 90 | 1028.8 |
| 20260509202604 | 49 | 309 | 2.0 | 3.0 | 0.00 | 0.00 | 0.00 | 90 | 1028.8 |
| 20260509202104 | 49 | 309 | 3.0 | 3.0 | 0.00 | 0.00 | 0.00 | 90 | 1028.7 |
| 20260509201604 | 49 | 282 | 2.0 | 3.0 | 0.00 | 0.00 | 0.00 | 90 | 1028.7 |
| 20260509201104 | 49 | 282 | 2.0 | 3.0 | 0.00 | 0.00 | 0.00 | 90 | 1028.6 |
| 20260509200604 | 49 | 282 | 2.0 | 3.0 | 0.00 | 0.00 | 0.00 | 90 | 1028.5 |
| 20260509200104 | 49 | 282 | 1.0 | 2.0 | 0.00 | 0.00 | 0.00 | 90 | 1028.5 |
| 20260509195604 | 49 | 282 | 2.0 | 3.0 | 0.00 | 0.00 | 0.00 | 90 | 1028.5 |
| 20260509195104 | 50 | 286 | 2.0 | 3.0 | 0.00 | 0.00 | 0.00 | 90 | 1028.4 |
| 20260509194604 | 49 | 311 | 1.0 | 3.0 | 0.00 | 0.00 | 0.00 | 90 | 1028.2 |
| 20260509194104 | 49 | 311 | 0.0 | 1.0 | 0.00 | 0.00 | 0.00 | 90 | 1028.2 |
| 20260509193604 | 49 | 311 | 1.0 | 1.0 | 0.00 | 0.00 | 0.00 | 90 | 1028.2 |
| 20260509193104 | 49 | 311 | 0.0 | 1.0 | 0.00 | 0.00 | 0.00 | 90 | 1028.1 |
| 20260509192604 | 49 | 311 | 0.0 | 2.0 | 0.00 | 0.00 | 0.00 | 90 | 1028.0 |
| 20260509191604 | 50 | 311 | 1.0 | 1.0 | 0.00 | 0.00 | 0.00 | 90 | 1027.8 |
| 20260509191104 | 50 | 311 | 1.0 | 2.0 | 0.00 | 0.00 | 0.00 | 90 | 1027.7 |
| 20260509190604 | 50 | 310 | 0.0 | 1.0 | 0.00 | 0.00 | 0.00 | 90 | 1027.7 |
| 20260509185604 | 50 | 311 | 2.0 | 3.0 | 0.00 | 0.00 | 0.00 | 90 | 1027.5 |
| 20260509185104 | 50 | 310 | 2.0 | 3.0 | 0.00 | 0.00 | 0.00 | 90 | 1027.5 |
| 20260509184604 | 50 | 311 | 2.0 | 3.0 | 0.00 | 0.00 | 0.00 | 90 | 1027.5 |
| 20260509183604 | 50 | 311 | 2.0 | 3.0 | 0.00 | 0.00 | 0.00 | 90 | 1027.5 |
| 20260509183103 | 50 | 310 | 2.0 | 3.0 | 0.00 | 0.00 | 0.00 | 90 | 1027.4 |
| 20260509182604 | 50 | 311 | 2.0 | 3.0 | 0.00 | 0.00 | 0.00 | 90 | 1027.4 |
| 20260509182104 | 50 | 256 | 1.0 | 3.0 | 0.00 | 0.00 | 0.00 | 89 | 1027.3 |
| 20260509181604 | 50 | 256 | 2.0 | 3.0 | 0.00 | 0.00 | 0.00 | 89 | 1027.2 |
| 20260509181104 | 50 | 256 | 1.0 | 3.0 | 0.00 | 0.00 | 0.00 | 89 | 1027.3 |
| 20260509180604 | 50 | 256 | 0.0 | 1.0 | 0.00 | 0.00 | 0.00 | 89 | 1027.3 |
| 20260509180104 | 50 | 256 | 0.0 | 0.0 | 0.00 | 0.00 | 0.00 | 89 | 1027.3 |
| 20260509175604 | 50 | 256 | 0.0 | 1.0 | 0.00 | 0.00 | 0.00 | 89 | 1027.3 |
| 20260509175104 | 50 | 256 | 1.0 | 2.0 | 0.00 | 0.00 | 0.00 | 89 | 1027.2 |
| 20260509174604 | 50 | 256 | 1.0 | 1.0 | 0.00 | 0.00 | 0.00 | 89 | 1027.2 |
| 20260509174104 | 50 | 256 | 1.0 | 2.0 | 0.00 | 0.00 | 0.00 | 89 | 1027.2 |
| 20260509173604 | 50 | 256 | 1.0 | 2.0 | 0.00 | 0.00 | 0.00 | 89 | 1027.2 |
| 20260509173104 | 51 | 256 | 0.0 | 1.0 | 0.00 | 0.00 | 0.00 | 89 | 1027.1 |
| 20260509172605 | 51 | 256 | 1.0 | 2.0 | 0.00 | 0.00 | 0.00 | 89 | 1027.1 |
| 20260509172103 | 51 | 256 | 1.0 | 2.0 | 0.00 | 0.00 | 0.00 | 89 | 1027.2 |
| 20260509171104 | 51 | 256 | 1.0 | 2.0 | 0.00 | 0.00 | 0.00 | 89 | 1027.1 |
| 20260509170604 | 51 | 256 | 2.0 | 3.0 | 0.00 | 0.00 | 0.00 | 89 | 1027.2 |
| 20260509170104 | 51 | 256 | 2.0 | 3.0 | 0.00 | 0.00 | 0.00 | 89 | 1027.1 |
| 20260509165604 | 51 | 256 | 2.0 | 3.0 | 0.00 | 0.00 | 0.00 | 89 | 1027.1 |
| 20260509165104 | 51 | 256 | 1.0 | 2.0 | 0.00 | 0.00 | 0.00 | 88 | 1027.2 |
| 20260509164604 | 51 | 256 | 1.0 | 2.0 | 0.00 | 0.00 | 0.00 | 88 | 1027.2 |
| 20260509163603 | 51 | 256 | 1.0 | 2.0 | 0.00 | 0.00 | 0.00 | 88 | 1027.2 |
| 20260509163104 | 51 | 256 | 1.0 | 2.0 | 0.00 | 0.00 | 0.00 | 88 | 1027.1 |
| 20260509162605 | 51 | 256 | 1.0 | 2.0 | 0.00 | 0.00 | 0.00 | 88 | 1027.2 |
| 20260509162104 | 51 | 256 | 1.0 | 2.0 | 0.00 | 0.00 | 0.00 | 88 | 1027.2 |
| 20260509161604 | 52 | 256 | 1.0 | 1.0 | 0.00 | 0.00 | 0.00 | 87 | 1027.3 |
| 20260509161104 | 52 | 256 | 1.0 | 2.0 | 0.00 | 0.00 | 0.00 | 87 | 1027.3 |
| 20260509160104 | 52 | 256 | 0.0 | 1.0 | 0.00 | 0.00 | 0.00 | 87 | 1027.3 |
| 20260509155604 | 52 | 256 | 0.0 | 1.0 | 0.00 | 0.00 | 0.00 | 87 | 1027.2 |
| 20260509155104 | 52 | 256 | 0.0 | 0.0 | 0.00 | 0.00 | 0.00 | 87 | 1027.2 |
| 20260509154604 | 52 | 256 | 0.0 | 1.0 | 0.00 | 0.00 | 0.00 | 87 | 1027.2 |
| 20260509154105 | 52 | 256 | 0.0 | 1.0 | 0.00 | 0.00 | 0.00 | 87 | 1027.2 |
| 20260509153604 | 52 | 256 | 1.0 | 2.0 | 0.00 | 0.00 | 0.00 | 87 | 1027.2 |
| 20260509153104 | 52 | 256 | 1.0 | 2.0 | 0.00 | 0.00 | 0.00 | 87 | 1027.2 |
| 20260509152604 | 52 | 256 | 2.0 | 3.0 | 0.00 | 0.00 | 0.00 | 87 | 1027.1 |
| 20260509152104 | 53 | 256 | 2.0 | 3.0 | 0.00 | 0.00 | 0.00 | 87 | 1027.2 |
| 20260509151604 | 53 | 256 | 2.0 | 3.0 | 0.00 | 0.00 | 0.00 | 87 | 1027.3 |
| 20260509151104 | 53 | 257 | 3.0 | 5.0 | 0.00 | 0.00 | 0.00 | 87 | 1027.3 |
| 20260509150604 | 53 | 265 | 3.0 | 5.0 | 0.00 | 0.00 | 0.00 | 87 | 1027.3 |
| 20260509150104 | 52 | 247 | 3.0 | 5.0 | 0.00 | 0.00 | 0.00 | 87 | 1027.3 |
| 20260509145604 | 52 | 260 | 3.0 | 5.0 | 0.00 | 0.00 | 0.00 | 87 | 1027.3 |
| 20260509145103 | 52 | 256 | 2.0 | 5.0 | 0.00 | 0.00 | 0.00 | 87 | 1027.2 |
| 20260509144603 | 52 | 243 | 2.0 | 3.0 | 0.00 | 0.00 | 0.00 | 87 | 1027.2 |
| 20260509144104 | 52 | 243 | 2.0 | 3.0 | 0.00 | 0.00 | 0.00 | 87 | 1027.2 |
| 20260509143603 | 52 | 243 | 1.0 | 3.0 | 0.00 | 0.00 | 0.00 | 86 | 1027.2 |
| 20260509143103 | 52 | 243 | 1.0 | 3.0 | 0.00 | 0.00 | 0.00 | 86 | 1027.2 |
| 20260509142604 | 53 | 243 | 2.0 | 3.0 | 0.00 | 0.00 | 0.00 | 87 | 1027.2 |
| 20260509142104 | 53 | 243 | 3.0 | 5.0 | 0.00 | 0.00 | 0.00 | 87 | 1027.2 |
| 20260509141604 | 53 | 243 | 2.0 | 3.0 | 0.00 | 0.00 | 0.00 | 87 | 1027.1 |
| 20260509141105 | 53 | 243 | 2.0 | 3.0 | 0.00 | 0.00 | 0.00 | 86 | 1027.1 |
| 20260509140104 | 53 | 243 | 2.0 | 5.0 | 0.00 | 0.00 | 0.00 | 86 | 1027.2 |
| 20260509135604 | 53 | 243 | 2.0 | 3.0 | 0.00 | 0.00 | 0.00 | 87 | 1027.2 |
| 20260509135105 | 53 | 243 | 1.0 | 3.0 | 0.00 | 0.00 | 0.00 | 87 | 1027.3 |
| 20260509134604 | 53 | 243 | 1.0 | 3.0 | 0.00 | 0.00 | 0.00 | 86 | 1027.3 |
| 20260509133604 | 53 | 243 | 2.0 | 3.0 | 0.00 | 0.00 | 0.00 | 86 | 1027.3 |
| 20260509133104 | 53 | 243 | 1.0 | 3.0 | 0.00 | 0.00 | 0.00 | 86 | 1027.3 |
| 20260509132604 | 53 | 243 | 2.0 | 3.0 | 0.00 | 0.00 | 0.00 | 86 | 1027.3 |
| 20260509132104 | 53 | 243 | 1.0 | 3.0 | 0.00 | 0.00 | 0.00 | 86 | 1027.3 |
| 20260509131604 | 53 | 243 | 2.0 | 3.0 | 0.00 | 0.00 | 0.00 | 86 | 1027.4 |
| 20260509130604 | 53 | 243 | 2.0 | 3.0 | 0.00 | 0.00 | 0.00 | 86 | 1027.3 |
| 20260509130104 | 53 | 243 | 2.0 | 3.0 | 0.00 | 0.00 | 0.00 | 86 | 1027.3 |
| 20260509125604 | 53 | 243 | 2.0 | 3.0 | 0.00 | 0.00 | 0.00 | 86 | 1027.3 |
| 20260509125104 | 53 | 243 | 1.0 | 2.0 | 0.00 | 0.00 | 0.00 | 85 | 1027.4 |
| 20260509124604 | 53 | 243 | 0.0 | 2.0 | 0.00 | 0.00 | 0.00 | 85 | 1027.4 |
| 20260509123605 | 54 | 243 | 2.0 | 3.0 | 0.00 | 0.00 | 0.00 | 84 | 1027.4 |
| 20260509123104 | 54 | 243 | 2.0 | 3.0 | 0.00 | 0.00 | 0.00 | 84 | 1027.3 |
| 20260509122604 | 54 | 241 | 3.0 | 5.0 | 0.00 | 0.00 | 0.00 | 84 | 1027.4 |
| 20260509122104 | 54 | 251 | 2.0 | 3.0 | 0.00 | 0.00 | 0.00 | 84 | 1027.4 |
| 20260509121604 | 54 | 251 | 2.0 | 3.0 | 0.00 | 0.00 | 0.00 | 84 | 1027.5 |
| 20260509121104 | 54 | 251 | 2.0 | 3.0 | 0.00 | 0.00 | 0.00 | 83 | 1027.5 |
| 20260509120104 | 55 | 251 | 2.0 | 3.0 | 0.00 | 0.00 | 0.00 | 83 | 1027.5 |
| 20260509115604 | 55 | 251 | 2.0 | 3.0 | 0.00 | 0.00 | 0.00 | 83 | 1027.5 |
| 20260509115105 | 55 | 251 | 2.0 | 3.0 | 0.00 | 0.00 | 0.00 | 83 | 1027.4 |
| 20260509114604 | 55 | 251 | 2.0 | 3.0 | 0.00 | 0.00 | 0.00 | 83 | 1027.4 |
| 20260509114104 | 55 | 251 | 2.0 | 3.0 | 0.00 | 0.00 | 0.00 | 83 | 1027.4 |
| 20260509113604 | 55 | 248 | 2.0 | 3.0 | 0.00 | 0.00 | 0.00 | 83 | 1027.4 |
| 20260509113104 | 55 | 235 | 3.0 | 3.0 | 0.00 | 0.00 | 0.00 | 83 | 1027.3 |
| 20260509112604 | 55 | 227 | 2.0 | 3.0 | 0.00 | 0.00 | 0.00 | 83 | 1027.4 |
| 20260509112104 | 55 | 227 | 2.0 | 3.0 | 0.00 | 0.00 | 0.00 | 82 | 1027.3 |
| 20260509111605 | 55 | 227 | 2.0 | 3.0 | 0.00 | 0.00 | 0.00 | 82 | 1027.4 |
| 20260509111105 | 55 | 221 | 3.0 | 3.0 | 0.00 | 0.00 | 0.00 | 82 | 1027.4 |
| 20260509110105 | 56 | 221 | 2.0 | 3.0 | 0.00 | 0.00 | 0.00 | 81 | 1027.2 |
| 20260509105605 | 56 | 221 | 2.0 | 3.0 | 0.00 | 0.00 | 0.00 | 81 | 1027.2 |
| 20260509105104 | 56 | 221 | 2.0 | 3.0 | 0.00 | 0.00 | 0.00 | 80 | 1027.2 |
| 20260509104603 | 56 | 221 | 1.0 | 3.0 | 0.00 | 0.00 | 0.00 | 80 | 1027.3 |
| 20260509104108 | 57 | 221 | 2.0 | 3.0 | 0.00 | 0.00 | 0.00 | 80 | 1027.3 |
| 20260509103604 | 57 | 220 | 2.0 | 3.0 | 0.00 | 0.00 | 0.00 | 79 | 1027.3 |
| 20260509103104 | 57 | 221 | 2.0 | 3.0 | 0.00 | 0.00 | 0.00 | 79 | 1027.2 |
| 20260509102604 | 57 | 221 | 1.0 | 3.0 | 0.00 | 0.00 | 0.00 | 79 | 1027.1 |
| 20260509102105 | 57 | 221 | 2.0 | 3.0 | 0.00 | 0.00 | 0.00 | 78 | 1026.9 |
| 20260509101604 | 57 | 221 | 2.0 | 3.0 | 0.00 | 0.00 | 0.00 | 78 | 1026.9 |
| 20260509101105 | 58 | 221 | 2.0 | 3.0 | 0.00 | 0.00 | 0.00 | 78 | 1026.8 |
| 20260509100105 | 58 | 220 | 3.0 | 3.0 | 0.00 | 0.00 | 0.00 | 77 | 1026.9 |
| 20260509095604 | 59 | 221 | 2.0 | 3.0 | 0.00 | 0.00 | 0.00 | 76 | 1026.8 |
| 20260509095105 | 59 | 99 | 1.0 | 3.0 | 0.00 | 0.00 | 0.00 | 76 | 1026.8 |
| 20260509094605 | 59 | 99 | 2.0 | 3.0 | 0.00 | 0.00 | 0.00 | 76 | 1026.7 |
| 20260509093605 | 59 | 99 | 1.0 | 2.0 | 0.00 | 0.00 | 0.00 | 75 | 1026.6 |
| 20260509093104 | 59 | 99 | 1.0 | 2.0 | 0.00 | 0.00 | 0.00 | 75 | 1026.7 |
| 20260509092604 | 59 | 99 | 1.0 | 2.0 | 0.00 | 0.00 | 0.00 | 75 | 1026.6 |
| 20260509092104 | 59 | 99 | 0.0 | 1.0 | 0.00 | 0.00 | 0.00 | 74 | 1026.5 |
| 20260509091604 | 60 | 99 | 0.0 | 1.0 | 0.00 | 0.00 | 0.00 | 74 | 1026.5 |
| 20260509091104 | 60 | 99 | 0.0 | 1.0 | 0.00 | 0.00 | 0.00 | 73 | 1026.3 |
| 20260509090104 | 60 | 99 | 1.0 | 2.0 | 0.00 | 0.00 | 0.00 | 73 | 1026.2 |
| 20260509085605 | 61 | 99 | 1.0 | 3.0 | 0.00 | 0.00 | 0.00 | 72 | 1026.1 |
| 20260509085103 | 61 | 99 | 1.0 | 3.0 | 0.00 | 0.00 | 0.00 | 72 | 1026.0 |
| 20260509084604 | 61 | 99 | 1.0 | 2.0 | 0.00 | 0.00 | 0.00 | 72 | 1026.0 |
| 20260509084104 | 61 | 99 | 0.0 | 0.0 | 0.00 | 0.00 | 0.00 | 71 | 1025.9 |
| 20260509083604 | 62 | 99 | 0.0 | 1.0 | 0.00 | 0.00 | 0.00 | 71 | 1025.7 |
| 20260509083104 | 62 | 99 | 1.0 | 2.0 | 0.00 | 0.00 | 0.00 | 70 | 1025.6 |
| 20260509082603 | 62 | 99 | 1.0 | 2.0 | 0.00 | 0.00 | 0.00 | 70 | 1025.6 |
| 20260509081104 | 62 | 99 | 1.0 | 3.0 | 0.00 | 0.00 | 0.00 | 69 | 1025.3 |
| 20260509080604 | 63 | 99 | 1.0 | 3.0 | 0.00 | 0.00 | 0.00 | 68 | 1025.3 |
| 20260509080104 | 63 | 99 | 0.0 | 1.0 | 0.00 | 0.00 | 0.00 | 68 | 1025.2 |
| 20260509075104 | 63 | 99 | 1.0 | 3.0 | 0.00 | 0.00 | 0.00 | 68 | 1025.1 |
| 20260509074604 | 63 | 99 | 2.0 | 3.0 | 0.00 | 0.00 | 0.00 | 67 | 1025.0 |
| 20260509074104 | 63 | 99 | 1.0 | 2.0 | 0.00 | 0.00 | 0.00 | 67 | 1025.0 |
| 20260509073605 | 63 | 99 | 1.0 | 2.0 | 0.00 | 0.00 | 0.00 | 67 | 1025.0 |
| 20260509073104 | 63 | 99 | 1.0 | 3.0 | 0.00 | 0.00 | 0.00 | 66 | 1024.9 |
| 20260509072604 | 64 | 99 | 1.0 | 3.0 | 0.00 | 0.00 | 0.00 | 66 | 1024.9 |
| 20260509072104 | 64 | 99 | 1.0 | 3.0 | 0.00 | 0.00 | 0.00 | 66 | 1024.9 |
| 20260509071104 | 64 | 106 | 3.0 | 7.0 | 0.00 | 0.00 | 0.00 | 65 | 1024.8 |
| 20260509070604 | 64 | 105 | 4.0 | 7.0 | 0.00 | 0.00 | 0.00 | 64 | 1024.7 |
| 20260509070104 | 65 | 108 | 5.0 | 9.0 | 0.00 | 0.00 | 0.00 | 64 | 1024.7 |
| 20260509065603 | 65 | 109 | 5.0 | 9.0 | 0.00 | 0.00 | 0.00 | 63 | 1024.7 |
| 20260509065104 | 65 | 106 | 3.0 | 8.0 | 0.00 | 0.00 | 0.00 | 63 | 1024.6 |
| 20260509064603 | 65 | 112 | 6.0 | 9.0 | 0.00 | 0.00 | 0.00 | 62 | 1024.6 |
| 20260509064103 | 66 | 106 | 6.0 | 10.0 | 0.00 | 0.00 | 0.00 | 62 | 1024.5 |
| 20260509063603 | 66 | 105 | 8.0 | 13.0 | 0.00 | 0.00 | 0.00 | 62 | 1024.4 |
| 20260509062603 | 66 | 116 | 5.0 | 8.0 | 0.00 | 0.00 | 0.00 | 62 | 1024.4 |
| 20260509062103 | 66 | 88 | 5.0 | 12.0 | 0.00 | 0.00 | 0.00 | 61 | 1024.3 |
| 20260509061604 | 67 | 112 | 7.0 | 12.0 | 0.00 | 0.00 | 0.00 | 61 | 1024.3 |
| 20260509061103 | 67 | 83 | 6.0 | 12.0 | 0.00 | 0.00 | 0.00 | 61 | 1024.2 |
| 20260509060603 | 67 | 82 | 8.0 | 12.0 | 0.00 | 0.00 | 0.00 | 60 | 1024.2 |
| 20260509060103 | 67 | 92 | 8.0 | 12.0 | 0.00 | 0.00 | 0.00 | 60 | 1024.0 |
| 20260509055603 | 67 | 107 | 8.0 | 13.0 | 0.00 | 0.00 | 0.00 | 59 | 1024.0 |
| 20260509054603 | 68 | 98 | 7.0 | 14.0 | 0.00 | 0.00 | 0.00 | 58 | 1023.9 |
| 20260509053604 | 68 | 121 | 7.0 | 12.0 | 0.00 | 0.00 | 0.00 | 57 | 1023.8 |
| 20260509053104 | 68 | 90 | 7.0 | 12.0 | 0.00 | 0.00 | 0.00 | 57 | 1023.8 |
| 20260509052104 | 69 | 70 | 7.0 | 13.0 | 0.00 | 0.00 | 0.00 | 57 | 1023.7 |
| 20260509051604 | 69 | 78 | 7.0 | 13.0 | 0.00 | 0.00 | 0.00 | 56 | 1023.7 |
| 20260509051104 | 69 | 86 | 9.0 | 13.0 | 0.00 | 0.00 | 0.00 | 56 | 1023.7 |
| 20260509050604 | 69 | 99 | 9.0 | 12.0 | 0.00 | 0.00 | 0.00 | 56 | 1023.7 |
| 20260509045604 | 70 | 84 | 10.0 | 14.0 | 0.00 | 0.00 | 0.00 | 55 | 1023.6 |
| 20260509043604 | 70 | 77 | 6.0 | 12.0 | 0.00 | 0.00 | 0.00 | 54 | 1023.5 |
| 20260509043104 | 70 | 83 | 9.0 | 12.0 | 0.00 | 0.00 | 0.00 | 53 | 1023.5 |
| 20260509042604 | 71 | 70 | 5.0 | 9.0 | 0.00 | 0.00 | 0.00 | 53 | 1023.5 |
| 20260509042104 | 71 | 290 | 1.0 | 3.0 | 0.00 | 0.00 | 0.00 | 47 | 1023.5 |
| 20260509041604 | 72 | 290 | 2.0 | 6.0 | 0.00 | 0.00 | 0.00 | 47 | 1023.4 |
| 20260509041104 | 72 | 273 | 3.0 | 7.0 | 0.00 | 0.00 | 0.00 | 47 | 1023.4 |
| 20260509040604 | 72 | 271 | 3.0 | 8.0 | 0.00 | 0.00 | 0.00 | 46 | 1023.4 |
| 20260509040104 | 72 | 295 | 2.0 | 6.0 | 0.00 | 0.00 | 0.00 | 48 | 1023.4 |
| 20260509035605 | 71 | 295 | 2.0 | 7.0 | 0.00 | 0.00 | 0.00 | 48 | 1023.5 |
| 20260509034604 | 71 | 294 | 6.0 | 8.0 | 0.00 | 0.00 | 0.00 | 47 | 1023.5 |
| 20260509033103 | 72 | 271 | 3.0 | 7.0 | 0.00 | 0.00 | 0.00 | 47 | 1023.6 |
| 20260509032604 | 71 | 244 | 1.0 | 3.0 | 0.00 | 0.00 | 0.00 | 48 | 1023.6 |
| 20260509031604 | 70 | 39 | 3.0 | 5.0 | 0.00 | 0.00 | 0.00 | 48 | 1023.7 |
| 20260509031104 | 71 | 336 | 1.0 | 7.0 | 0.00 | 0.00 | 0.00 | 47 | 1023.7 |
| 20260509030605 | 71 | 312 | 3.0 | 8.0 | 0.00 | 0.00 | 0.00 | 48 | 1023.8 |
| 20260509030104 | 71 | 255 | 2.0 | 6.0 | 0.00 | 0.00 | 0.00 | 48 | 1023.9 |
| 20260509025604 | 70 | 289 | 3.0 | 7.0 | 0.00 | 0.00 | 0.00 | 48 | 1023.9 |
| 20260509025104 | 70 | 304 | 5.0 | 10.0 | 0.00 | 0.00 | 0.00 | 48 | 1024.0 |
| 20260509024604 | 71 | 292 | 3.0 | 7.0 | 0.00 | 0.00 | 0.00 | 48 | 1024.0 |
| 20260509024104 | 71 | 291 | 3.0 | 7.0 | 0.00 | 0.00 | 0.00 | 48 | 1024.1 |
| 20260509023604 | 70 | 290 | 1.0 | 3.0 | 0.00 | 0.00 | 0.00 | 48 | 1024.1 |
| 20260509023104 | 70 | 264 | 1.0 | 3.0 | 0.00 | 0.00 | 0.00 | 48 | 1024.2 |
| 20260509022604 | 70 | 264 | 1.0 | 5.0 | 0.00 | 0.00 | 0.00 | 48 | 1024.3 |
| 20260509022104 | 69 | 242 | 3.0 | 7.0 | 0.00 | 0.00 | 0.00 | 49 | 1024.3 |
| 20260509021604 | 70 | 250 | 5.0 | 7.0 | 0.00 | 0.00 | 0.00 | 49 | 1024.5 |
| 20260509020104 | 69 | 271 | 5.0 | 10.0 | 0.00 | 0.00 | 0.00 | 49 | 1024.9 |
| 20260509015604 | 69 | 258 | 2.0 | 8.0 | 0.00 | 0.00 | 0.00 | 49 | 1025.0 |
| 20260509015104 | 69 | 271 | 4.0 | 9.0 | 0.00 | 0.00 | 0.00 | 50 | 1025.0 |
| 20260509013604 | 68 | 135 | 2.0 | 8.0 | 0.00 | 0.00 | 0.00 | 51 | 1025.1 |
| 20260509013104 | 69 | 247 | 3.0 | 8.0 | 0.00 | 0.00 | 0.00 | 51 | 1025.2 |
| 20260509012604 | 69 | 274 | 3.0 | 7.0 | 0.00 | 0.00 | 0.00 | 52 | 1025.2 |
| 20260509011604 | 68 | 282 | 2.0 | 6.0 | 0.00 | 0.00 | 0.00 | 53 | 1025.2 |
| 20260509010604 | 66 | 241 | 3.0 | 8.0 | 0.00 | 0.00 | 0.00 | 55 | 1025.3 |
| 20260509005104 | 67 | 178 | 3.0 | 7.0 | 0.00 | 0.00 | 0.00 | 56 | 1025.7 |
| 20260509004603 | 67 | 173 | 2.0 | 5.0 | 0.00 | 0.00 | 0.00 | 56 | 1025.6 |
| 20260509004104 | 66 | 299 | 3.0 | 7.0 | 0.00 | 0.00 | 0.00 | 57 | 1025.7 |
| 20260509002604 | 66 | 298 | 4.0 | 7.0 | 0.00 | 0.00 | 0.00 | 58 | 1025.8 |
| 20260509002104 | 65 | 290 | 1.0 | 8.0 | 0.00 | 0.00 | 0.00 | 61 | 1025.8 |
| 20260509001604 | 64 | 273 | 5.0 | 9.0 | 0.00 | 0.00 | 0.00 | 61 | 1025.8 |
| 20260509001104 | 64 | 253 | 6.0 | 12.0 | 0.00 | 0.00 | 0.00 | 60 | 1025.7 |
| 20260509000604 | 63 | 243 | 3.0 | 8.0 | 0.00 | 0.00 | 0.00 | 61 | 1025.9 |
| 20260509000103 | 64 | 257 | 3.0 | 8.0 | 0.00 | 0.00 | 0.00 | 61 | 1025.9 |
| 20260508235104 | 64 | 239 | 3.0 | 7.0 | 0.00 | 0.00 | 0.00 | 64 | 1026.0 |
| 20260508234604 | 63 | 290 | 5.0 | 10.0 | 0.00 | 0.00 | 0.00 | 65 | 1026.0 |
| 20260508234104 | 62 | 290 | 5.0 | 9.0 | 0.00 | 0.00 | 0.00 | 66 | 1026.0 |
| 20260508233104 | 62 | 282 | 5.0 | 8.0 | 0.00 | 0.00 | 0.00 | 67 | 1026.0 |
| 20260508232604 | 61 | 265 | 2.0 | 8.0 | 0.00 | 0.00 | 0.00 | 67 | 1026.0 |
| 20260508232104 | 61 | 293 | 5.0 | 8.0 | 0.00 | 0.00 | 0.00 | 67 | 1025.9 |
| 20260508231604 | 60 | 292 | 5.0 | 8.0 | 0.00 | 0.00 | 0.00 | 69 | 1026.0 |
| 20260508230604 | 60 | 286 | 4.0 | 8.0 | 0.00 | 0.00 | 0.00 | 70 | 1026.0 |
| 20260508230105 | 59 | 296 | 4.0 | 8.0 | 0.00 | 0.00 | 0.00 | 71 | 1026.0 |
| 20260508225604 | 59 | 305 | 4.0 | 6.0 | 0.00 | 0.00 | 0.00 | 70 | 1026.0 |
| 20260508225104 | 59 | 303 | 3.0 | 6.0 | 0.00 | 0.00 | 0.00 | 72 | 1026.0 |